owner,sensor,date,latitude,longitude,sea_surface_height_above_sea_level,qcFlag 
TCOON,ioos:station:TCOON:013:1,2017-07-01T00:24:00Z,27.4847,-97.3181,0.802,1111122 
TCOON,ioos:station:TCOON:013:1,2017-07-01T01:18:00Z,27.4847,-97.3181,0.798,1111122 
TCOON,ioos:station:TCOON:013:1,2017-07-01T02:18:00Z,27.4847,-97.3181,0.795,1111122 
TCOON,ioos:station:TCOON:013:1,2017-07-01T05:18:00Z,27.4847,-97.3181,0.791,1111122 
TCOON,ioos:station:TCOON:013:1,2017-07-01T07:48:00Z,27.4847,-97.3181,0.791,1111122 
TCOON,ioos:station:TCOON:013:1,2017-07-03T05:00:00Z,27.4847,-97.3181,0.709,1111122 
TCOON,ioos:station:TCOON:013:1,2017-07-03T08:18:00Z,27.4847,-97.3181,0.677,1111122 
TCOON,ioos:station:TCOON:013:1,2017-07-03T09:18:00Z,27.4847,-97.3181,0.706,1111122 
TCOON,ioos:station:TCOON:013:1,2017-07-03T10:42:00Z,27.4847,-97.3181,0.705,1111122 
TCOON,ioos:station:TCOON:013:1,2017-07-03T11:42:00Z,27.4847,-97.3181,0.704,1111122 
TCOON,ioos:station:TCOON:013:1,2017-07-03T12:24:00Z,27.4847,-97.3181,0.706,1111122 
TCOON,ioos:station:TCOON:013:1,2017-07-03T13:18:00Z,27.4847,-97.3181,0.708,1111122 
TCOON,ioos:station:TCOON:013:1,2017-07-03T14:18:00Z,27.4847,-97.3181,0.708,1111122 
TCOON,ioos:station:TCOON:013:1,2017-07-03T17:30:00Z,27.4847,-97.3181,0.714,1111122 
TCOON,ioos:station:TCOON:013:1,2017-07-03T22:00:00Z,27.4847,-97.3181,0.704,1111122 
TCOON,ioos:station:TCOON:013:1,2017-07-03T22:48:00Z,27.4847,-97.3181,0.7,1111122 
TCOON,ioos:station:TCOON:013:1,2017-07-04T00:00:00Z,27.4847,-97.3181,0.696,1111122 
TCOON,ioos:station:TCOON:013:1,2017-07-04T00:18:00Z,27.4847,-97.3181,0.694,1111122 
TCOON,ioos:station:TCOON:013:1,2017-07-04T01:18:00Z,27.4847,-97.3181,0.694,1111122 
TCOON,ioos:station:TCOON:013:1,2017-07-04T02:18:00Z,27.4847,-97.3181,0.69,1111122 
TCOON,ioos:station:TCOON:013:1,2017-07-04T03:24:00Z,27.4847,-97.3181,0.684,1111122 
TCOON,ioos:station:TCOON:013:1,2017-07-04T04:18:00Z,27.4847,-97.3181,0.681,1111122 
TCOON,ioos:station:TCOON:013:1,2017-07-04T05:18:00Z,27.4847,-97.3181,0.683,1111122 
TCOON,ioos:station:TCOON:013:1,2017-07-04T06:18:00Z,27.4847,-97.3181,0.682,1111122 
TCOON,ioos:station:TCOON:013:1,2017-07-04T07:18:00Z,27.4847,-97.3181,0.676,1111122 
TCOON,ioos:station:TCOON:013:1,2017-07-04T08:18:00Z,27.4847,-97.3181,0.679,1111122 
TCOON,ioos:station:TCOON:013:1,2017-07-04T09:18:00Z,27.4847,-97.3181,0.675,1111122 
TCOON,ioos:station:TCOON:013:1,2017-07-04T10:18:00Z,27.4847,-97.3181,0.674,1111122 
TCOON,ioos:station:TCOON:013:1,2017-07-04T11:18:00Z,27.4847,-97.3181,0.675,1111122 
TCOON,ioos:station:TCOON:013:1,2017-07-04T12:18:00Z,27.4847,-97.3181,0.675,1111122 
TCOON,ioos:station:TCOON:013:1,2017-07-04T13:18:00Z,27.4847,-97.3181,0.674,1111122 
TCOON,ioos:station:TCOON:013:1,2017-07-04T14:18:00Z,27.4847,-97.3181,0.676,1111122 
TCOON,ioos:station:TCOON:013:1,2017-07-04T15:18:00Z,27.4847,-97.3181,0.677,1111122 
TCOON,ioos:station:TCOON:013:1,2017-07-04T16:18:00Z,27.4847,-97.3181,0.677,1111122 
TCOON,ioos:station:TCOON:013:1,2017-07-04T17:18:00Z,27.4847,-97.3181,0.675,1111122 
TCOON,ioos:station:TCOON:013:1,2017-07-04T18:18:00Z,27.4847,-97.3181,0.676,1111122 
TCOON,ioos:station:TCOON:013:1,2017-07-04T19:18:00Z,27.4847,-97.3181,0.674,1111122 
TCOON,ioos:station:TCOON:013:1,2017-07-04T20:18:00Z,27.4847,-97.3181,0.674,1111122 
TCOON,ioos:station:TCOON:013:1,2017-07-04T21:18:00Z,27.4847,-97.3181,0.67,1111122 
TCOON,ioos:station:TCOON:013:1,2017-07-04T22:18:00Z,27.4847,-97.3181,0.664,1111122 
TCOON,ioos:station:TCOON:013:1,2017-07-04T23:18:00Z,27.4847,-97.3181,0.666,1111122 
TCOON,ioos:station:TCOON:013:1,2017-07-05T00:18:00Z,27.4847,-97.3181,0.66,1111122 
TCOON,ioos:station:TCOON:013:1,2017-07-05T01:18:00Z,27.4847,-97.3181,0.66,1111122 
TCOON,ioos:station:TCOON:013:1,2017-07-05T02:18:00Z,27.4847,-97.3181,0.658,1111122 
TCOON,ioos:station:TCOON:013:1,2017-07-05T03:18:00Z,27.4847,-97.3181,0.653,1111122 
TCOON,ioos:station:TCOON:013:1,2017-07-05T04:18:00Z,27.4847,-97.3181,0.648,1111122 
TCOON,ioos:station:TCOON:013:1,2017-07-05T05:18:00Z,27.4847,-97.3181,0.648,1111122 
TCOON,ioos:station:TCOON:013:1,2017-07-05T06:18:00Z,27.4847,-97.3181,0.646,1111122 
TCOON,ioos:station:TCOON:013:1,2017-07-05T07:18:00Z,27.4847,-97.3181,0.644,1111122 
TCOON,ioos:station:TCOON:013:1,2017-07-05T08:18:00Z,27.4847,-97.3181,0.644,1111122 
TCOON,ioos:station:TCOON:013:1,2017-07-05T09:18:00Z,27.4847,-97.3181,0.644,1111122 
TCOON,ioos:station:TCOON:013:1,2017-07-05T10:18:00Z,27.4847,-97.3181,0.642,1111122 
TCOON,ioos:station:TCOON:013:1,2017-07-05T11:18:00Z,27.4847,-97.3181,0.641,1111122 
TCOON,ioos:station:TCOON:013:1,2017-07-05T12:18:00Z,27.4847,-97.3181,0.642,1111122 
TCOON,ioos:station:TCOON:013:1,2017-07-05T13:18:00Z,27.4847,-97.3181,0.645,1111122 
TCOON,ioos:station:TCOON:013:1,2017-07-05T14:18:00Z,27.4847,-97.3181,0.644,1111122 
TCOON,ioos:station:TCOON:013:1,2017-07-05T15:18:00Z,27.4847,-97.3181,0.646,1111122 
TCOON,ioos:station:TCOON:013:1,2017-07-05T16:18:00Z,27.4847,-97.3181,0.652,1111122 
TCOON,ioos:station:TCOON:013:1,2017-07-05T17:18:00Z,27.4847,-97.3181,0.662,1111122 
TCOON,ioos:station:TCOON:013:1,2017-07-05T18:18:00Z,27.4847,-97.3181,0.664,1111122 
TCOON,ioos:station:TCOON:013:1,2017-07-05T19:18:00Z,27.4847,-97.3181,0.668,1111122 
TCOON,ioos:station:TCOON:013:1,2017-07-05T20:18:00Z,27.4847,-97.3181,0.668,1111122 
TCOON,ioos:station:TCOON:013:1,2017-07-05T21:18:00Z,27.4847,-97.3181,0.664,1111122 
TCOON,ioos:station:TCOON:013:1,2017-07-05T22:18:00Z,27.4847,-97.3181,0.66,1111122 
TCOON,ioos:station:TCOON:013:1,2017-07-05T23:18:00Z,27.4847,-97.3181,0.658,1111122 
TCOON,ioos:station:TCOON:013:1,2017-07-06T00:18:00Z,27.4847,-97.3181,0.656,1111122 
TCOON,ioos:station:TCOON:013:1,2017-07-06T01:18:00Z,27.4847,-97.3181,0.648,1111122 
TCOON,ioos:station:TCOON:013:1,2017-07-06T02:18:00Z,27.4847,-97.3181,0.645,1111122 
TCOON,ioos:station:TCOON:013:1,2017-07-06T03:18:00Z,27.4847,-97.3181,0.644,1111122 
TCOON,ioos:station:TCOON:013:1,2017-07-06T04:18:00Z,27.4847,-97.3181,0.639,1111122 
TCOON,ioos:station:TCOON:013:1,2017-07-06T05:18:00Z,27.4847,-97.3181,0.638,1111122 
TCOON,ioos:station:TCOON:013:1,2017-07-06T06:18:00Z,27.4847,-97.3181,0.635,1111122 
TCOON,ioos:station:TCOON:013:1,2017-07-06T07:18:00Z,27.4847,-97.3181,0.633,1111122 
TCOON,ioos:station:TCOON:013:1,2017-07-06T08:18:00Z,27.4847,-97.3181,0.631,1111122 
TCOON,ioos:station:TCOON:013:1,2017-07-06T09:18:00Z,27.4847,-97.3181,0.632,1111122 
TCOON,ioos:station:TCOON:013:1,2017-07-06T10:18:00Z,27.4847,-97.3181,0.63,1111122 
TCOON,ioos:station:TCOON:013:1,2017-07-06T11:18:00Z,27.4847,-97.3181,0.63,1111122 
TCOON,ioos:station:TCOON:013:1,2017-07-06T12:18:00Z,27.4847,-97.3181,0.63,1111122 
TCOON,ioos:station:TCOON:013:1,2017-07-06T13:18:00Z,27.4847,-97.3181,0.63,1111122 
TCOON,ioos:station:TCOON:013:1,2017-07-06T14:18:00Z,27.4847,-97.3181,0.638,1111122 
TCOON,ioos:station:TCOON:013:1,2017-07-06T15:18:00Z,27.4847,-97.3181,0.644,1111122 
TCOON,ioos:station:TCOON:013:1,2017-07-06T16:18:00Z,27.4847,-97.3181,0.652,1111122 
TCOON,ioos:station:TCOON:013:1,2017-07-06T17:18:00Z,27.4847,-97.3181,0.662,1111122 
TCOON,ioos:station:TCOON:013:1,2017-07-06T18:18:00Z,27.4847,-97.3181,0.668,1111122 
TCOON,ioos:station:TCOON:013:1,2017-07-06T19:18:00Z,27.4847,-97.3181,0.67,1111122 
TCOON,ioos:station:TCOON:013:1,2017-07-06T20:18:00Z,27.4847,-97.3181,0.67,1111122 
TCOON,ioos:station:TCOON:013:1,2017-07-06T21:18:00Z,27.4847,-97.3181,0.669,1111122 
TCOON,ioos:station:TCOON:013:1,2017-07-06T22:18:00Z,27.4847,-97.3181,0.666,1111122 
TCOON,ioos:station:TCOON:013:1,2017-07-06T23:18:00Z,27.4847,-97.3181,0.659,1111122 
TCOON,ioos:station:TCOON:013:1,2017-07-07T00:18:00Z,27.4847,-97.3181,0.657,1111122 
TCOON,ioos:station:TCOON:013:1,2017-07-07T01:18:00Z,27.4847,-97.3181,0.649,1111122 
TCOON,ioos:station:TCOON:013:1,2017-07-07T02:18:00Z,27.4847,-97.3181,0.642,1111122 
TCOON,ioos:station:TCOON:013:1,2017-07-07T03:18:00Z,27.4847,-97.3181,0.638,1111122 
TCOON,ioos:station:TCOON:013:1,2017-07-07T04:18:00Z,27.4847,-97.3181,0.632,1111122 
TCOON,ioos:station:TCOON:013:1,2017-07-07T05:18:00Z,27.4847,-97.3181,0.63,1111122 
TCOON,ioos:station:TCOON:013:1,2017-07-07T06:18:00Z,27.4847,-97.3181,0.63,1111122 
TCOON,ioos:station:TCOON:013:1,2017-07-07T07:18:00Z,27.4847,-97.3181,0.629,1111122 
TCOON,ioos:station:TCOON:013:1,2017-07-07T08:18:00Z,27.4847,-97.3181,0.63,1111122 
TCOON,ioos:station:TCOON:013:1,2017-07-07T09:18:00Z,27.4847,-97.3181,0.628,1111122 
TCOON,ioos:station:TCOON:013:1,2017-07-07T10:18:00Z,27.4847,-97.3181,0.627,1111122 
TCOON,ioos:station:TCOON:013:1,2017-07-07T11:18:00Z,27.4847,-97.3181,0.629,1111122 
TCOON,ioos:station:TCOON:013:1,2017-07-07T12:18:00Z,27.4847,-97.3181,0.639,1111122 
TCOON,ioos:station:TCOON:013:1,2017-07-07T13:18:00Z,27.4847,-97.3181,0.634,1111122 
TCOON,ioos:station:TCOON:013:1,2017-07-07T14:18:00Z,27.4847,-97.3181,0.635,1111122 
TCOON,ioos:station:TCOON:013:1,2017-07-07T15:18:00Z,27.4847,-97.3181,0.641,1111122 
TCOON,ioos:station:TCOON:013:1,2017-07-07T16:18:00Z,27.4847,-97.3181,0.645,1111122 
TCOON,ioos:station:TCOON:013:1,2017-07-07T17:36:00Z,27.4847,-97.3181,0.657,1111122 
TCOON,ioos:station:TCOON:013:1,2017-07-07T18:18:00Z,27.4847,-97.3181,0.663,1111122 
TCOON,ioos:station:TCOON:013:1,2017-07-07T19:18:00Z,27.4847,-97.3181,0.666,1111122 
TCOON,ioos:station:TCOON:013:1,2017-07-07T20:18:00Z,27.4847,-97.3181,0.663,1111122 
TCOON,ioos:station:TCOON:013:1,2017-07-07T21:18:00Z,27.4847,-97.3181,0.666,1111122 
TCOON,ioos:station:TCOON:013:1,2017-07-07T22:18:00Z,27.4847,-97.3181,0.666,1111122 
TCOON,ioos:station:TCOON:013:1,2017-07-07T23:18:00Z,27.4847,-97.3181,0.664,1111122 
TCOON,ioos:station:TCOON:013:1,2017-07-08T00:18:00Z,27.4847,-97.3181,0.676,1111122 
TCOON,ioos:station:TCOON:013:1,2017-07-08T01:18:00Z,27.4847,-97.3181,0.663,1111122 
TCOON,ioos:station:TCOON:013:1,2017-07-08T02:18:00Z,27.4847,-97.3181,0.661,1111122 
TCOON,ioos:station:TCOON:013:1,2017-07-08T03:18:00Z,27.4847,-97.3181,0.669,1111122 
TCOON,ioos:station:TCOON:013:1,2017-07-08T04:18:00Z,27.4847,-97.3181,0.658,1111122 
TCOON,ioos:station:TCOON:013:1,2017-07-08T05:18:00Z,27.4847,-97.3181,0.654,1111122 
TCOON,ioos:station:TCOON:013:1,2017-07-08T06:18:00Z,27.4847,-97.3181,0.654,1111122 
TCOON,ioos:station:TCOON:013:1,2017-07-08T07:18:00Z,27.4847,-97.3181,0.651,1111122 
TCOON,ioos:station:TCOON:013:1,2017-07-08T08:18:00Z,27.4847,-97.3181,0.648,1111122 
TCOON,ioos:station:TCOON:013:1,2017-07-08T09:18:00Z,27.4847,-97.3181,0.645,1111122 
TCOON,ioos:station:TCOON:013:1,2017-07-08T10:18:00Z,27.4847,-97.3181,0.641,1111122 
TCOON,ioos:station:TCOON:013:1,2017-07-08T11:18:00Z,27.4847,-97.3181,0.637,1111122 
TCOON,ioos:station:TCOON:013:1,2017-07-08T12:18:00Z,27.4847,-97.3181,0.635,1111122 
TCOON,ioos:station:TCOON:013:1,2017-07-08T13:18:00Z,27.4847,-97.3181,0.633,1111122 
TCOON,ioos:station:TCOON:013:1,2017-07-08T14:18:00Z,27.4847,-97.3181,0.634,1111122 
TCOON,ioos:station:TCOON:013:1,2017-07-08T15:18:00Z,27.4847,-97.3181,0.635,1111122 
TCOON,ioos:station:TCOON:013:1,2017-07-08T16:18:00Z,27.4847,-97.3181,0.641,1111122 
TCOON,ioos:station:TCOON:013:1,2017-07-08T17:18:00Z,27.4847,-97.3181,0.65,1111122 
TCOON,ioos:station:TCOON:013:1,2017-07-08T18:18:00Z,27.4847,-97.3181,0.656,1111122 
TCOON,ioos:station:TCOON:013:1,2017-07-08T19:18:00Z,27.4847,-97.3181,0.657,1111122 
TCOON,ioos:station:TCOON:013:1,2017-07-08T20:18:00Z,27.4847,-97.3181,0.656,1111122 
TCOON,ioos:station:TCOON:013:1,2017-07-08T21:18:00Z,27.4847,-97.3181,0.656,1111122 
TCOON,ioos:station:TCOON:013:1,2017-07-08T22:18:00Z,27.4847,-97.3181,0.658,1111122 
TCOON,ioos:station:TCOON:013:1,2017-07-08T23:30:00Z,27.4847,-97.3181,0.655,1111122 
TCOON,ioos:station:TCOON:013:1,2017-07-09T00:30:00Z,27.4847,-97.3181,0.656,1111122 
TCOON,ioos:station:TCOON:013:1,2017-07-09T01:30:00Z,27.4847,-97.3181,0.655,1111122 
TCOON,ioos:station:TCOON:013:1,2017-07-09T02:18:00Z,27.4847,-97.3181,0.654,1111122 
TCOON,ioos:station:TCOON:013:1,2017-07-09T03:18:00Z,27.4847,-97.3181,0.654,1111122 
TCOON,ioos:station:TCOON:013:1,2017-07-09T04:18:00Z,27.4847,-97.3181,0.651,1111122 
TCOON,ioos:station:TCOON:013:1,2017-07-09T05:18:00Z,27.4847,-97.3181,0.648,1111122 
TCOON,ioos:station:TCOON:013:1,2017-07-09T06:18:00Z,27.4847,-97.3181,0.645,1111122 
TCOON,ioos:station:TCOON:013:1,2017-07-09T07:18:00Z,27.4847,-97.3181,0.644,1111122 
TCOON,ioos:station:TCOON:013:1,2017-07-09T08:18:00Z,27.4847,-97.3181,0.643,1111122 
TCOON,ioos:station:TCOON:013:1,2017-07-09T09:18:00Z,27.4847,-97.3181,0.643,1111122 
TCOON,ioos:station:TCOON:013:1,2017-07-09T10:18:00Z,27.4847,-97.3181,0.639,1111122 
TCOON,ioos:station:TCOON:013:1,2017-07-09T11:18:00Z,27.4847,-97.3181,0.634,1111122 
TCOON,ioos:station:TCOON:013:1,2017-07-09T12:18:00Z,27.4847,-97.3181,0.631,1111122 
TCOON,ioos:station:TCOON:013:1,2017-07-09T13:18:00Z,27.4847,-97.3181,0.628,1111122 
TCOON,ioos:station:TCOON:013:1,2017-07-09T14:18:00Z,27.4847,-97.3181,0.626,1111122 
TCOON,ioos:station:TCOON:013:1,2017-07-09T15:18:00Z,27.4847,-97.3181,0.624,1111122 
TCOON,ioos:station:TCOON:013:1,2017-07-09T16:18:00Z,27.4847,-97.3181,0.627,1111122 
TCOON,ioos:station:TCOON:013:1,2017-07-09T17:36:00Z,27.4847,-97.3181,0.63,1111122 
TCOON,ioos:station:TCOON:013:1,2017-07-09T18:36:00Z,27.4847,-97.3181,0.635,1111122 
TCOON,ioos:station:TCOON:013:1,2017-07-09T19:36:00Z,27.4847,-97.3181,0.637,1111122 
TCOON,ioos:station:TCOON:013:1,2017-07-09T20:36:00Z,27.4847,-97.3181,0.641,1111122 
TCOON,ioos:station:TCOON:013:1,2017-07-09T21:36:00Z,27.4847,-97.3181,0.639,1111122 
TCOON,ioos:station:TCOON:013:1,2017-07-09T22:30:00Z,27.4847,-97.3181,0.64,1111122 
TCOON,ioos:station:TCOON:013:1,2017-07-09T23:36:00Z,27.4847,-97.3181,0.642,1111122 
TCOON,ioos:station:TCOON:013:1,2017-07-10T00:30:00Z,27.4847,-97.3181,0.637,1111122 
TCOON,ioos:station:TCOON:013:1,2017-07-10T01:36:00Z,27.4847,-97.3181,0.635,1111122 
TCOON,ioos:station:TCOON:013:1,2017-07-10T02:36:00Z,27.4847,-97.3181,0.633,1111122 
TCOON,ioos:station:TCOON:013:1,2017-07-10T03:36:00Z,27.4847,-97.3181,0.634,1111122 
TCOON,ioos:station:TCOON:013:1,2017-07-10T04:42:00Z,27.4847,-97.3181,0.631,1111122 
TCOON,ioos:station:TCOON:013:1,2017-07-10T05:36:00Z,27.4847,-97.3181,0.631,1111122 
TCOON,ioos:station:TCOON:013:1,2017-07-10T06:36:00Z,27.4847,-97.3181,0.628,1111122 
TCOON,ioos:station:TCOON:013:1,2017-07-10T07:36:00Z,27.4847,-97.3181,0.596,1111122 
TCOON,ioos:station:TCOON:013:1,2017-07-10T08:36:00Z,27.4847,-97.3181,0.627,1111122 
TCOON,ioos:station:TCOON:013:1,2017-07-10T09:24:00Z,27.4847,-97.3181,0.626,1111122 
TCOON,ioos:station:TCOON:013:1,2017-07-10T10:18:00Z,27.4847,-97.3181,0.623,1111122 
TCOON,ioos:station:TCOON:013:1,2017-07-10T11:18:00Z,27.4847,-97.3181,0.616,1111122 
TCOON,ioos:station:TCOON:013:1,2017-07-10T12:18:00Z,27.4847,-97.3181,0.611,1111122 
TCOON,ioos:station:TCOON:013:1,2017-07-10T13:18:00Z,27.4847,-97.3181,0.61,1111122 
TCOON,ioos:station:TCOON:013:1,2017-07-10T14:18:00Z,27.4847,-97.3181,0.604,1111122 
TCOON,ioos:station:TCOON:013:1,2017-07-10T15:18:00Z,27.4847,-97.3181,0.605,1111122 
TCOON,ioos:station:TCOON:013:1,2017-07-10T16:18:00Z,27.4847,-97.3181,0.605,1111122 
TCOON,ioos:station:TCOON:013:1,2017-07-10T17:18:00Z,27.4847,-97.3181,0.604,1111122 
TCOON,ioos:station:TCOON:013:1,2017-07-10T18:18:00Z,27.4847,-97.3181,0.608,1111122 
TCOON,ioos:station:TCOON:013:1,2017-07-10T19:18:00Z,27.4847,-97.3181,0.614,1111122 
TCOON,ioos:station:TCOON:013:1,2017-07-10T20:18:00Z,27.4847,-97.3181,0.617,1111122 
TCOON,ioos:station:TCOON:013:1,2017-07-10T21:18:00Z,27.4847,-97.3181,0.618,1111122 
TCOON,ioos:station:TCOON:013:1,2017-07-10T22:18:00Z,27.4847,-97.3181,0.618,1111122 
TCOON,ioos:station:TCOON:013:1,2017-07-10T23:18:00Z,27.4847,-97.3181,0.619,1111122 
TCOON,ioos:station:TCOON:013:1,2017-07-11T00:18:00Z,27.4847,-97.3181,0.618,1111122 
TCOON,ioos:station:TCOON:013:1,2017-07-11T01:18:00Z,27.4847,-97.3181,0.623,1111122 
TCOON,ioos:station:TCOON:013:1,2017-07-11T02:18:00Z,27.4847,-97.3181,0.624,1111122 
TCOON,ioos:station:TCOON:013:1,2017-07-11T03:18:00Z,27.4847,-97.3181,0.625,1111122 
TCOON,ioos:station:TCOON:013:1,2017-07-11T04:18:00Z,27.4847,-97.3181,0.622,1111122 
TCOON,ioos:station:TCOON:013:1,2017-07-11T05:18:00Z,27.4847,-97.3181,0.622,1111122 
TCOON,ioos:station:TCOON:013:1,2017-07-11T06:18:00Z,27.4847,-97.3181,0.62,1111122 
TCOON,ioos:station:TCOON:013:1,2017-07-11T07:18:00Z,27.4847,-97.3181,0.619,1111122 
TCOON,ioos:station:TCOON:013:1,2017-07-11T08:18:00Z,27.4847,-97.3181,0.616,1111122 
TCOON,ioos:station:TCOON:013:1,2017-07-11T09:18:00Z,27.4847,-97.3181,0.612,1111122 
TCOON,ioos:station:TCOON:013:1,2017-07-11T10:18:00Z,27.4847,-97.3181,0.61,1111122 
TCOON,ioos:station:TCOON:013:1,2017-07-11T11:18:00Z,27.4847,-97.3181,0.607,1111122 
TCOON,ioos:station:TCOON:013:1,2017-07-11T12:18:00Z,27.4847,-97.3181,0.605,1111122 
TCOON,ioos:station:TCOON:013:1,2017-07-11T13:18:00Z,27.4847,-97.3181,0.603,1111122 
TCOON,ioos:station:TCOON:013:1,2017-07-11T14:18:00Z,27.4847,-97.3181,0.603,1111122 
TCOON,ioos:station:TCOON:013:1,2017-07-11T15:18:00Z,27.4847,-97.3181,0.601,1111122 
TCOON,ioos:station:TCOON:013:1,2017-07-11T16:18:00Z,27.4847,-97.3181,0.599,1111122 
TCOON,ioos:station:TCOON:013:1,2017-07-11T17:18:00Z,27.4847,-97.3181,0.601,1111122 
TCOON,ioos:station:TCOON:013:1,2017-07-11T18:18:00Z,27.4847,-97.3181,0.601,1111122 
TCOON,ioos:station:TCOON:013:1,2017-07-11T19:18:00Z,27.4847,-97.3181,0.604,1111122 
TCOON,ioos:station:TCOON:013:1,2017-07-11T20:18:00Z,27.4847,-97.3181,0.609,1111122 
TCOON,ioos:station:TCOON:013:1,2017-07-11T21:18:00Z,27.4847,-97.3181,0.611,1111122 
TCOON,ioos:station:TCOON:013:1,2017-07-11T22:18:00Z,27.4847,-97.3181,0.61,1111122 
TCOON,ioos:station:TCOON:013:1,2017-07-11T23:18:00Z,27.4847,-97.3181,0.615,1111122 
TCOON,ioos:station:TCOON:013:1,2017-07-12T00:18:00Z,27.4847,-97.3181,0.617,1111122 
TCOON,ioos:station:TCOON:013:1,2017-07-12T01:18:00Z,27.4847,-97.3181,0.629,1111122 
TCOON,ioos:station:TCOON:013:1,2017-07-12T02:18:00Z,27.4847,-97.3181,0.615,1111122 
TCOON,ioos:station:TCOON:013:1,2017-07-12T03:18:00Z,27.4847,-97.3181,0.617,1111122 
TCOON,ioos:station:TCOON:013:1,2017-07-12T04:18:00Z,27.4847,-97.3181,0.619,1111122 
TCOON,ioos:station:TCOON:013:1,2017-07-12T05:18:00Z,27.4847,-97.3181,0.62,1111122 
TCOON,ioos:station:TCOON:013:1,2017-07-12T06:18:00Z,27.4847,-97.3181,0.618,1111122 
TCOON,ioos:station:TCOON:013:1,2017-07-12T07:18:00Z,27.4847,-97.3181,0.62,1111122 
TCOON,ioos:station:TCOON:013:1,2017-07-12T08:18:00Z,27.4847,-97.3181,0.615,1111122 
TCOON,ioos:station:TCOON:013:1,2017-07-12T09:18:00Z,27.4847,-97.3181,0.613,1111122 
TCOON,ioos:station:TCOON:013:1,2017-07-12T10:18:00Z,27.4847,-97.3181,0.609,1111122 
TCOON,ioos:station:TCOON:013:1,2017-07-12T11:18:00Z,27.4847,-97.3181,0.606,1111122 
TCOON,ioos:station:TCOON:013:1,2017-07-12T12:18:00Z,27.4847,-97.3181,0.603,1111122 
TCOON,ioos:station:TCOON:013:1,2017-07-12T13:18:00Z,27.4847,-97.3181,0.6,1111122 
TCOON,ioos:station:TCOON:013:1,2017-07-12T14:18:00Z,27.4847,-97.3181,0.599,1111122 
TCOON,ioos:station:TCOON:013:1,2017-07-12T15:18:00Z,27.4847,-97.3181,0.598,1111122 
TCOON,ioos:station:TCOON:013:1,2017-07-12T16:18:00Z,27.4847,-97.3181,0.597,1111122 
TCOON,ioos:station:TCOON:013:1,2017-07-12T17:18:00Z,27.4847,-97.3181,0.598,1111122 
TCOON,ioos:station:TCOON:013:1,2017-07-12T18:18:00Z,27.4847,-97.3181,0.6,1111122 
TCOON,ioos:station:TCOON:013:1,2017-07-12T19:18:00Z,27.4847,-97.3181,0.606,1111122 
TCOON,ioos:station:TCOON:013:1,2017-07-12T20:18:00Z,27.4847,-97.3181,0.613,1111122 
TCOON,ioos:station:TCOON:013:1,2017-07-12T21:18:00Z,27.4847,-97.3181,0.618,1111122 
TCOON,ioos:station:TCOON:013:1,2017-07-12T22:18:00Z,27.4847,-97.3181,0.622,1111122 
TCOON,ioos:station:TCOON:013:1,2017-07-13T00:18:00Z,27.4847,-97.3181,0.627,1111122 
TCOON,ioos:station:TCOON:013:1,2017-07-13T01:18:00Z,27.4847,-97.3181,0.626,1111122 
TCOON,ioos:station:TCOON:013:1,2017-07-13T02:18:00Z,27.4847,-97.3181,0.625,1111122 
TCOON,ioos:station:TCOON:013:1,2017-07-13T03:18:00Z,27.4847,-97.3181,0.623,1111122 
TCOON,ioos:station:TCOON:013:1,2017-07-13T04:18:00Z,27.4847,-97.3181,0.623,1111122 
TCOON,ioos:station:TCOON:013:1,2017-07-13T05:18:00Z,27.4847,-97.3181,0.625,1111122 
TCOON,ioos:station:TCOON:013:1,2017-07-13T06:18:00Z,27.4847,-97.3181,0.624,1111122 
TCOON,ioos:station:TCOON:013:1,2017-07-13T07:18:00Z,27.4847,-97.3181,0.622,1111122 
TCOON,ioos:station:TCOON:013:1,2017-07-13T08:18:00Z,27.4847,-97.3181,0.62,1111122 
TCOON,ioos:station:TCOON:013:1,2017-07-13T09:18:00Z,27.4847,-97.3181,0.617,1111122 
TCOON,ioos:station:TCOON:013:1,2017-07-13T10:18:00Z,27.4847,-97.3181,0.612,1111122 
TCOON,ioos:station:TCOON:013:1,2017-07-13T11:18:00Z,27.4847,-97.3181,0.607,1111122 
TCOON,ioos:station:TCOON:013:1,2017-07-13T12:18:00Z,27.4847,-97.3181,0.603,1111122 
TCOON,ioos:station:TCOON:013:1,2017-07-13T13:18:00Z,27.4847,-97.3181,0.6,1111122 
TCOON,ioos:station:TCOON:013:1,2017-07-13T14:18:00Z,27.4847,-97.3181,0.597,1111122 
TCOON,ioos:station:TCOON:013:1,2017-07-13T15:18:00Z,27.4847,-97.3181,0.598,1111122 
TCOON,ioos:station:TCOON:013:1,2017-07-13T16:18:00Z,27.4847,-97.3181,0.596,1111122 
TCOON,ioos:station:TCOON:013:1,2017-07-13T17:18:00Z,27.4847,-97.3181,0.597,1111122 
TCOON,ioos:station:TCOON:013:1,2017-07-13T18:18:00Z,27.4847,-97.3181,0.602,1111122 
TCOON,ioos:station:TCOON:013:1,2017-07-13T19:18:00Z,27.4847,-97.3181,0.605,1111122 
TCOON,ioos:station:TCOON:013:1,2017-07-13T20:18:00Z,27.4847,-97.3181,0.607,1111122 
TCOON,ioos:station:TCOON:013:1,2017-07-13T21:18:00Z,27.4847,-97.3181,0.608,1111122 
TCOON,ioos:station:TCOON:013:1,2017-07-13T22:18:00Z,27.4847,-97.3181,0.614,1111122 
TCOON,ioos:station:TCOON:013:1,2017-07-13T23:18:00Z,27.4847,-97.3181,0.615,1111122 
TCOON,ioos:station:TCOON:013:1,2017-07-14T00:18:00Z,27.4847,-97.3181,0.617,1111122 
TCOON,ioos:station:TCOON:013:1,2017-07-14T01:18:00Z,27.4847,-97.3181,0.618,1111122 
TCOON,ioos:station:TCOON:013:1,2017-07-14T02:18:00Z,27.4847,-97.3181,0.62,1111122 
TCOON,ioos:station:TCOON:013:1,2017-07-14T03:18:00Z,27.4847,-97.3181,0.621,1111122 
TCOON,ioos:station:TCOON:013:1,2017-07-14T04:18:00Z,27.4847,-97.3181,0.625,1111122 
TCOON,ioos:station:TCOON:013:1,2017-07-14T05:18:00Z,27.4847,-97.3181,0.625,1111122 
TCOON,ioos:station:TCOON:013:1,2017-07-14T06:18:00Z,27.4847,-97.3181,0.625,1111122 
TCOON,ioos:station:TCOON:013:1,2017-07-14T07:18:00Z,27.4847,-97.3181,0.626,1111122 
TCOON,ioos:station:TCOON:013:1,2017-07-14T08:18:00Z,27.4847,-97.3181,0.625,1111122 
TCOON,ioos:station:TCOON:013:1,2017-07-14T09:18:00Z,27.4847,-97.3181,0.625,1111122 
TCOON,ioos:station:TCOON:013:1,2017-07-14T10:18:00Z,27.4847,-97.3181,0.623,1111122 
TCOON,ioos:station:TCOON:013:1,2017-07-14T11:18:00Z,27.4847,-97.3181,0.619,1111122 
TCOON,ioos:station:TCOON:013:1,2017-07-14T12:18:00Z,27.4847,-97.3181,0.619,1111122 
TCOON,ioos:station:TCOON:013:1,2017-07-14T13:18:00Z,27.4847,-97.3181,0.616,1111122 
TCOON,ioos:station:TCOON:013:1,2017-07-14T14:18:00Z,27.4847,-97.3181,0.613,1111122 
TCOON,ioos:station:TCOON:013:1,2017-07-14T15:18:00Z,27.4847,-97.3181,0.612,1111122 
TCOON,ioos:station:TCOON:013:1,2017-07-14T16:18:00Z,27.4847,-97.3181,0.612,1111122 
TCOON,ioos:station:TCOON:013:1,2017-07-14T17:18:00Z,27.4847,-97.3181,0.615,1111122 
TCOON,ioos:station:TCOON:013:1,2017-07-14T18:18:00Z,27.4847,-97.3181,0.616,1111122 
TCOON,ioos:station:TCOON:013:1,2017-07-14T19:18:00Z,27.4847,-97.3181,0.617,1111122 
TCOON,ioos:station:TCOON:013:1,2017-07-14T20:18:00Z,27.4847,-97.3181,0.616,1111122 
TCOON,ioos:station:TCOON:013:1,2017-07-14T21:18:00Z,27.4847,-97.3181,0.615,1111122 
TCOON,ioos:station:TCOON:013:1,2017-07-14T22:18:00Z,27.4847,-97.3181,0.611,1111122 
TCOON,ioos:station:TCOON:013:1,2017-07-14T23:18:00Z,27.4847,-97.3181,0.611,1111122 
TCOON,ioos:station:TCOON:013:1,2017-07-15T00:18:00Z,27.4847,-97.3181,0.608,1111122 
TCOON,ioos:station:TCOON:013:1,2017-07-15T01:18:00Z,27.4847,-97.3181,0.609,1111122 
TCOON,ioos:station:TCOON:013:1,2017-07-15T02:18:00Z,27.4847,-97.3181,0.611,1111122 
TCOON,ioos:station:TCOON:013:1,2017-07-15T03:18:00Z,27.4847,-97.3181,0.611,1111122 
TCOON,ioos:station:TCOON:013:1,2017-07-15T04:18:00Z,27.4847,-97.3181,0.624,1111122 